| time (UTC) | temp C | wind direction | speed KPH | gust KPH | rain 1hr cm | rain 24hr cm | rain mn cm | humidity % | barometer mb |
| 20260901112714 | 13 | 254 | 0.0 | 12.9 | 0.03 | 0.03 | 0.03 | 93 | 1011.6 |
| 20260901112201 | 13 | 0 | 0.0 | 12.9 | 0.03 | 0.03 | 0.03 | 93 | 1011.6 |
| 20260901111648 | 13 | 0 | 0.0 | 6.4 | 0.00 | 0.00 | 0.00 | 93 | 1011.6 |
| 20260901111135 | 13 | 0 | 0.0 | 0.0 | 0.00 | 0.00 | 0.00 | 93 | 1011.5 |
| 20260901110622 | 13 | 0 | 0.0 | 9.7 | 0.00 | 0.00 | 0.00 | 93 | 1011.5 |
| 20260901110109 | 13 | 0 | 0.0 | 9.7 | 0.00 | 0.00 | 0.00 | 93 | 1011.5 |
| 20260901105557 | 13 | 177 | 1.6 | 9.7 | 0.00 | 0.00 | 0.00 | 93 | 1011.6 |
| 20260901105043 | 13 | 0 | 0.0 | 8.0 | 0.00 | 0.00 | 0.00 | 93 | 1011.5 |
| 20260901104017 | 13 | 0 | 0.0 | 8.0 | 0.00 | 0.00 | 0.00 | 93 | 1011.6 |
| 20260901103504 | 13 | 0 | 0.0 | 6.4 | 0.00 | 0.00 | 0.00 | 93 | 1011.6 |
| 20260901102951 | 13 | 0 | 0.0 | 0.0 | 0.00 | 0.00 | 0.00 | 93 | 1011.6 |
| 20260901102438 | 13 | 0 | 0.0 | 12.9 | 0.00 | 0.00 | 0.00 | 93 | 1011.5 |
| 20260901101925 | 13 | 0 | 0.0 | 12.9 | 0.00 | 0.00 | 0.00 | 93 | 1011.5 |
| 20260901101412 | 13 | 319 | 0.0 | 12.9 | 0.00 | 0.00 | 0.00 | 93 | 1011.5 |
| 20260901100859 | 13 | 176 | 0.0 | 9.7 | 0.00 | 0.00 | 0.00 | 92 | 1011.5 |
| 20260901100346 | 13 | 161 | 3.2 | 9.7 | 0.00 | 0.00 | 0.00 | 92 | 1011.4 |
| 20260901095834 | 13 | 228 | 0.0 | 4.8 | 0.00 | 0.00 | 0.00 | 92 | 1011.5 |
| 20260901095320 | 13 | 0 | 0.0 | 12.9 | 0.00 | 0.00 | 0.00 | 92 | 1011.5 |
| 20260901094807 | 13 | 0 | 0.0 | 12.9 | 0.00 | 0.00 | 0.00 | 92 | 1011.5 |
| 20260901094254 | 14 | 232 | 0.0 | 12.9 | 0.00 | 0.00 | 0.00 | 92 | 1011.5 |
| 20260901093742 | 13 | 215 | 1.6 | 11.3 | 0.00 | 0.00 | 0.00 | 92 | 1011.6 |
| 20260901092202 | 13 | 152 | 0.0 | 12.9 | 0.00 | 0.00 | 0.00 | 92 | 1011.5 |
| 20260901091649 | 13 | 254 | 0.0 | 12.9 | 0.00 | 0.00 | 0.00 | 92 | 1011.6 |
| 20260901091136 | 13 | 176 | 3.2 | 11.3 | 0.00 | 0.00 | 0.00 | 92 | 1011.5 |
| 20260901090110 | 13 | 0 | 0.0 | 11.3 | 0.00 | 0.00 | 0.00 | 92 | 1011.5 |
| 20260901085557 | 13 | 305 | 1.6 | 9.7 | 0.00 | 0.00 | 0.00 | 92 | 1011.4 |
| 20260901085044 | 13 | 235 | 0.0 | 14.5 | 0.00 | 0.00 | 0.00 | 92 | 1011.4 |
| 20260901084531 | 13 | 0 | 0.0 | 14.5 | 0.00 | 0.00 | 0.00 | 92 | 1011.4 |
| 20260901084018 | 13 | 281 | 0.0 | 14.5 | 0.00 | 0.00 | 0.00 | 92 | 1011.5 |
| 20260901083505 | 13 | 249 | 1.6 | 11.3 | 0.00 | 0.00 | 0.00 | 92 | 1011.5 |
| 20260901082952 | 13 | 0 | 1.6 | 11.3 | 0.00 | 0.00 | 0.00 | 92 | 1011.5 |
| 20260901082439 | 13 | 0 | 0.0 | 11.3 | 0.00 | 0.00 | 0.00 | 92 | 1011.6 |
| 20260901081926 | 13 | 246 | 0.0 | 9.7 | 0.00 | 0.00 | 0.00 | 92 | 1011.5 |
| 20260901081413 | 13 | 243 | 0.0 | 11.3 | 0.00 | 0.00 | 0.00 | 92 | 1011.5 |
| 20260901080900 | 13 | 0 | 0.0 | 11.3 | 0.00 | 0.00 | 0.00 | 92 | 1011.4 |
| 20260901080347 | 14 | 245 | 4.8 | 11.3 | 0.00 | 0.00 | 0.00 | 92 | 1011.4 |
| 20260901075835 | 13 | 274 | 0.0 | 3.2 | 0.00 | 0.00 | 0.00 | 92 | 1011.3 |
| 20260901075321 | 13 | 0 | 0.0 | 0.0 | 0.00 | 0.00 | 0.00 | 92 | 1011.3 |
| 20260901074808 | 13 | 0 | 0.0 | 9.7 | 0.00 | 0.00 | 0.00 | 92 | 1011.2 |
| 20260901074255 | 13 | 274 | 0.0 | 9.7 | 0.00 | 0.00 | 0.00 | 92 | 1011.2 |
| 20260901073742 | 13 | 0 | 0.0 | 9.7 | 0.00 | 0.00 | 0.00 | 92 | 1011.2 |
| 20260901072716 | 14 | 0 | 0.0 | 4.8 | 0.00 | 0.00 | 0.00 | 92 | 1011.3 |
| 20260901072203 | 13 | 0 | 0.0 | 4.8 | 0.00 | 0.00 | 0.00 | 92 | 1011.2 |
| 20260901071650 | 13 | 0 | 0.0 | 4.8 | 0.00 | 0.00 | 0.00 | 92 | 1011.3 |
| 20260901071137 | 13 | 0 | 0.0 | 4.8 | 0.00 | 0.00 | 0.00 | 92 | 1011.3 |
| 20260901070624 | 14 | 0 | 0.0 | 4.8 | 0.00 | 0.00 | 0.00 | 92 | 1011.2 |
| 20260901070111 | 13 | 0 | 0.0 | 0.0 | 0.00 | 0.00 | 0.00 | 92 | 1011.2 |
| 20260901065558 | 13 | 0 | 0.0 | 0.0 | 0.00 | 0.00 | 0.00 | 92 | 1011.3 |
| 20260901065045 | 13 | 0 | 0.0 | 0.0 | 0.00 | 0.00 | 0.00 | 92 | 1011.2 |
| 20260901064532 | 13 | 0 | 0.0 | 0.0 | 0.00 | 0.00 | 0.00 | 92 | 1011.2 |
| 20260901064019 | 14 | 0 | 0.0 | 0.0 | 0.00 | 0.00 | 0.00 | 92 | 1011.3 |
| 20260901063506 | 13 | 0 | 0.0 | 6.4 | 0.00 | 0.00 | 0.00 | 92 | 1011.3 |
| 20260901062953 | 14 | 0 | 0.0 | 6.4 | 0.00 | 0.00 | 0.00 | 92 | 1011.2 |
| 20260901062440 | 13 | 0 | 0.0 | 6.4 | 0.00 | 0.00 | 0.00 | 92 | 1011.3 |
| 20260901061927 | 13 | 268 | 0.0 | 1.6 | 0.00 | 0.00 | 0.00 | 92 | 1011.3 |
| 20260901061414 | 13 | 0 | 0.0 | 0.0 | 0.00 | 0.00 | 0.00 | 92 | 1011.3 |
| 20260901060901 | 13 | 0 | 0.0 | 0.0 | 0.00 | 0.00 | 0.00 | 92 | 1011.4 |
| 20260901060348 | 13 | 0 | 0.0 | 8.0 | 0.00 | 0.00 | 0.00 | 92 | 1011.4 |
| 20260901055835 | 13 | 0 | 0.0 | 8.0 | 0.00 | 0.00 | 0.00 | 92 | 1011.4 |
| 20260901055322 | 13 | 302 | 0.0 | 8.0 | 0.00 | 0.00 | 0.00 | 92 | 1011.5 |
| 20260901054809 | 13 | 0 | 0.0 | 4.8 | 0.00 | 0.00 | 0.00 | 92 | 1011.6 |
| 20260901054256 | 13 | 0 | 0.0 | 4.8 | 0.00 | 0.00 | 0.00 | 92 | 1011.6 |
| 20260901053743 | 13 | 280 | 0.0 | 4.8 | 0.00 | 0.00 | 0.00 | 92 | 1011.6 |
| 20260901053230 | 13 | 0 | 0.0 | 0.0 | 0.00 | 0.00 | 0.00 | 92 | 1011.6 |
| 20260901052717 | 13 | 0 | 0.0 | 0.0 | 0.00 | 0.00 | 0.00 | 92 | 1011.7 |
| 20260901052204 | 13 | 0 | 0.0 | 0.0 | 0.00 | 0.00 | 0.00 | 92 | 1011.7 |
| 20260901051651 | 13 | 0 | 0.0 | 0.0 | 0.00 | 0.00 | 0.00 | 92 | 1011.6 |
| 20260901051138 | 13 | 0 | 0.0 | 0.0 | 0.00 | 0.00 | 0.00 | 91 | 1011.6 |
| 20260901050625 | 13 | 0 | 0.0 | 0.0 | 0.00 | 0.00 | 0.00 | 91 | 1011.6 |
| 20260901050112 | 13 | 0 | 0.0 | 0.0 | 0.00 | 0.00 | 0.00 | 91 | 1011.6 |
| 20260901045046 | 13 | 0 | 0.0 | 0.0 | 0.00 | 0.00 | 0.00 | 91 | 1011.6 |
| 20260901044533 | 13 | 0 | 0.0 | 0.0 | 0.00 | 0.00 | 0.00 | 91 | 1011.7 |
| 20260901044020 | 13 | 0 | 0.0 | 0.0 | 0.00 | 0.00 | 0.00 | 91 | 1011.6 |
| 20260901043507 | 13 | 0 | 0.0 | 0.0 | 0.00 | 0.00 | 0.00 | 91 | 1011.7 |
| 20260901042954 | 13 | 0 | 0.0 | 0.0 | 0.00 | 0.00 | 0.00 | 91 | 1011.6 |
| 20260901042441 | 13 | 0 | 0.0 | 0.0 | 0.00 | 0.00 | 0.00 | 91 | 1011.6 |
| 20260901041928 | 13 | 0 | 0.0 | 0.0 | 0.00 | 0.00 | 0.00 | 91 | 1011.5 |
| 20260901041415 | 14 | 0 | 0.0 | 0.0 | 0.00 | 0.00 | 0.00 | 91 | 1011.4 |
| 20260901040902 | 13 | 0 | 0.0 | 0.0 | 0.00 | 0.00 | 0.00 | 91 | 1011.3 |
| 20260901040350 | 13 | 0 | 0.0 | 0.0 | 0.00 | 0.00 | 0.00 | 91 | 1011.3 |
| 20260901035836 | 14 | 0 | 0.0 | 0.0 | 0.00 | 0.00 | 0.00 | 91 | 1011.2 |
| 20260901035323 | 13 | 0 | 0.0 | 0.0 | 0.00 | 0.00 | 0.00 | 91 | 1011.1 |
| 20260901034810 | 14 | 0 | 0.0 | 0.0 | 0.00 | 0.00 | 0.00 | 91 | 1011.2 |
| 20260901034257 | 14 | 0 | 0.0 | 0.0 | 0.00 | 0.00 | 0.00 | 91 | 1011.1 |
| 20260901033744 | 14 | 0 | 0.0 | 0.0 | 0.00 | 0.00 | 0.00 | 91 | 1011.0 |
| 20260901033231 | 14 | 0 | 0.0 | 0.0 | 0.00 | 0.00 | 0.00 | 91 | 1011.0 |
| 20260901032205 | 14 | 0 | 0.0 | 0.0 | 0.00 | 0.00 | 0.00 | 91 | 1011.0 |
| 20260901031138 | 14 | 0 | 0.0 | 0.0 | 0.00 | 0.00 | 0.00 | 91 | 1011.0 |
| 20260901030625 | 13 | 0 | 0.0 | 0.0 | 0.00 | 0.00 | 0.00 | 91 | 1010.9 |
| 20260901030113 | 13 | 0 | 0.0 | 0.0 | 0.00 | 0.00 | 0.00 | 91 | 1010.8 |
| 20260901025559 | 14 | 0 | 0.0 | 0.0 | 0.00 | 0.00 | 0.00 | 91 | 1010.7 |
| 20260901025046 | 14 | 0 | 0.0 | 0.0 | 0.00 | 0.00 | 0.00 | 91 | 1010.8 |
| 20260901024534 | 13 | 0 | 0.0 | 0.0 | 0.00 | 0.00 | 0.00 | 91 | 1010.8 |
| 20260901024020 | 13 | 0 | 0.0 | 9.7 | 0.00 | 0.00 | 0.00 | 91 | 1010.9 |
| 20260901023507 | 13 | 0 | 0.0 | 9.7 | 0.00 | 0.00 | 0.00 | 91 | 1010.9 |
| 20260901022954 | 13 | 0 | 3.2 | 9.7 | 0.00 | 0.00 | 0.00 | 90 | 1010.8 |
| 20260901022441 | 13 | 0 | 0.0 | 0.0 | 0.00 | 0.00 | 0.00 | 90 | 1010.8 |
| 20260901021928 | 13 | 175 | 0.0 | 11.3 | 0.00 | 0.00 | 0.00 | 90 | 1010.7 |
| 20260901021415 | 13 | 148 | 0.0 | 11.3 | 0.00 | 0.00 | 0.00 | 90 | 1010.9 |
| 20260901020902 | 13 | 207 | 6.4 | 11.3 | 0.00 | 0.00 | 0.00 | 90 | 1010.9 |
| 20260901020350 | 13 | 260 | 8.0 | 14.5 | 0.00 | 0.00 | 0.00 | 90 | 1010.9 |
| 20260901015836 | 13 | 285 | 3.2 | 14.5 | 0.00 | 0.00 | 0.00 | 90 | 1010.9 |
| 20260901015323 | 13 | 247 | 8.0 | 14.5 | 0.00 | 0.00 | 0.00 | 89 | 1010.9 |
| 20260901014811 | 13 | 0 | 0.0 | 14.5 | 0.00 | 0.00 | 0.00 | 89 | 1010.8 |
| 20260901014258 | 13 | 280 | 0.0 | 14.5 | 0.00 | 0.00 | 0.00 | 89 | 1010.7 |
| 20260901013744 | 13 | 264 | 8.0 | 14.5 | 0.00 | 0.00 | 0.00 | 89 | 1010.7 |
| 20260901012718 | 13 | 240 | 0.0 | 9.7 | 0.00 | 0.00 | 0.00 | 89 | 1010.6 |
| 20260901011652 | 13 | 0 | 0.0 | 8.0 | 0.00 | 0.00 | 0.00 | 89 | 1010.5 |
| 20260901011139 | 13 | 259 | 0.0 | 8.0 | 0.00 | 0.00 | 0.00 | 88 | 1010.5 |
| 20260901010626 | 14 | 0 | 0.0 | 12.9 | 0.00 | 0.00 | 0.00 | 88 | 1010.5 |
| 20260901010113 | 13 | 239 | 0.0 | 12.9 | 0.00 | 0.00 | 0.00 | 88 | 1010.5 |
| 20260901005600 | 14 | 235 | 1.6 | 12.9 | 0.00 | 0.00 | 0.00 | 87 | 1010.5 |
| 20260901005047 | 14 | 281 | 4.8 | 8.0 | 0.00 | 0.00 | 0.00 | 88 | 1010.5 |
| 20260901004534 | 14 | 0 | 0.0 | 4.8 | 0.00 | 0.00 | 0.00 | 88 | 1010.5 |
| 20260901004021 | 14 | 0 | 0.0 | 16.1 | 0.00 | 0.00 | 0.00 | 87 | 1010.5 |
| 20260901003508 | 15 | 0 | 4.8 | 16.1 | 0.00 | 0.00 | 0.00 | 87 | 1010.7 |
| 20260901002955 | 15 | 278 | 0.0 | 16.1 | 0.00 | 0.00 | 0.00 | 87 | 1010.7 |
| 20260901002442 | 15 | 275 | 6.4 | 12.9 | 0.00 | 0.00 | 0.00 | 87 | 1010.6 |
| 20260901001929 | 15 | 256 | 1.6 | 8.0 | 0.00 | 0.00 | 0.00 | 87 | 1010.5 |
| 20260901001416 | 15 | 194 | 0.0 | 4.8 | 0.00 | 0.00 | 0.00 | 87 | 1010.5 |
| 20260901000903 | 15 | 287 | 4.8 | 11.3 | 0.00 | 0.00 | 0.00 | 87 | 1010.6 |
| 20260901000350 | 15 | 261 | 4.8 | 11.3 | 0.00 | 0.00 | 0.00 | 86 | 1010.6 |
| 20260831235837 | 15 | 302 | 4.8 | 11.3 | 0.00 | 0.00 | 0.00 | 86 | 1010.7 |
| 20260831235324 | 15 | 266 | 0.0 | 11.3 | 0.00 | 0.00 | 0.00 | 87 | 1010.7 |
| 20260831234811 | 16 | 305 | 1.6 | 11.3 | 0.00 | 0.00 | 0.00 | 86 | 1010.7 |
| 20260831234259 | 16 | 270 | 4.8 | 11.3 | 0.00 | 0.00 | 0.00 | 85 | 1010.7 |
| 20260831233745 | 16 | 229 | 6.4 | 11.3 | 0.00 | 0.00 | 0.00 | 85 | 1010.7 |
| 20260831232206 | 16 | 299 | 3.2 | 9.7 | 0.00 | 0.00 | 0.00 | 86 | 1010.7 |
| 20260831231653 | 16 | 329 | 6.4 | 9.7 | 0.00 | 0.00 | 0.00 | 86 | 1010.7 |
| 20260831231140 | 16 | 0 | 0.0 | 9.7 | 0.00 | 0.00 | 0.00 | 87 | 1010.8 |
| 20260831230627 | 16 | 212 | 3.2 | 9.7 | 0.00 | 0.00 | 0.00 | 87 | 1010.9 |
| 20260831230114 | 16 | 253 | 6.4 | 9.7 | 0.00 | 0.00 | 0.00 | 88 | 1010.9 |
| 20260831225602 | 15 | 292 | 4.8 | 14.5 | 0.00 | 0.00 | 0.00 | 88 | 1010.9 |
| 20260831224535 | 14 | 193 | 4.8 | 14.5 | 0.00 | 0.00 | 0.00 | 87 | 1011.0 |
| 20260831224022 | 15 | 280 | 1.6 | 14.5 | 0.00 | 0.00 | 0.00 | 87 | 1011.1 |
| 20260831223509 | 14 | 254 | 6.4 | 14.5 | 0.00 | 0.00 | 0.00 | 87 | 1011.0 |
| 20260831222956 | 14 | 294 | 4.8 | 14.5 | 0.00 | 0.00 | 0.00 | 87 | 1011.1 |
| 20260831222443 | 15 | 224 | 9.7 | 20.9 | 0.00 | 0.00 | 0.00 | 86 | 1011.1 |
| 20260831221930 | 15 | 242 | 9.7 | 20.9 | 0.00 | 0.00 | 0.00 | 86 | 1011.1 |
| 20260831221417 | 15 | 274 | 9.7 | 20.9 | 0.00 | 0.00 | 0.00 | 86 | 1011.1 |
| 20260831220904 | 15 | 238 | 8.0 | 16.1 | 0.00 | 0.00 | 0.00 | 86 | 1011.1 |
| 20260831220351 | 16 | 268 | 8.0 | 16.1 | 0.00 | 0.00 | 0.00 | 86 | 1011.1 |
| 20260831215838 | 16 | 235 | 8.0 | 14.5 | 0.00 | 0.00 | 0.00 | 86 | 1011.0 |
| 20260831215325 | 16 | 264 | 8.0 | 14.5 | 0.00 | 0.00 | 0.00 | 86 | 1011.0 |
| 20260831214813 | 16 | 266 | 11.3 | 19.3 | 0.00 | 0.00 | 0.00 | 86 | 1011.0 |
| 20260831214259 | 16 | 268 | 8.0 | 19.3 | 0.00 | 0.00 | 0.00 | 86 | 1011.0 |
| 20260831213746 | 16 | 271 | 11.3 | 19.3 | 0.00 | 0.00 | 0.00 | 85 | 1011.0 |
| 20260831213233 | 16 | 270 | 9.7 | 14.5 | 0.00 | 0.00 | 0.00 | 85 | 1011.0 |
| 20260831212720 | 16 | 253 | 3.2 | 14.5 | 0.00 | 0.00 | 0.00 | 86 | 1010.9 |
| 20260831212207 | 16 | 288 | 6.4 | 14.5 | 0.00 | 0.00 | 0.00 | 86 | 1010.9 |
| 20260831211654 | 16 | 285 | 9.7 | 16.1 | 0.00 | 0.00 | 0.00 | 86 | 1010.8 |
| 20260831211141 | 16 | 291 | 4.8 | 16.1 | 0.00 | 0.00 | 0.00 | 86 | 1010.8 |
| 20260831210628 | 16 | 266 | 4.8 | 16.1 | 0.00 | 0.00 | 0.00 | 87 | 1010.8 |
| 20260831210115 | 16 | 254 | 8.0 | 14.5 | 0.00 | 0.00 | 0.00 | 86 | 1010.8 |
| 20260831205049 | 16 | 277 | 3.2 | 16.1 | 0.00 | 0.00 | 0.00 | 88 | 1010.9 |
| 20260831204536 | 15 | 275 | 6.4 | 16.1 | 0.00 | 0.00 | 0.00 | 87 | 1010.9 |
| 20260831204023 | 15 | 277 | 4.8 | 16.1 | 0.00 | 0.00 | 0.00 | 87 | 1011.0 |
| 20260831202959 | 15 | 0 | 4.8 | 14.5 | 0.00 | 0.00 | 0.00 | 88 | 1011.0 |
| 20260831202444 | 14 | 261 | 4.8 | 12.9 | 0.00 | 0.00 | 0.00 | 88 | 1011.0 |
| 20260831201931 | 15 | 238 | 6.4 | 17.7 | 0.00 | 0.00 | 0.00 | 88 | 1011.0 |
| 20260831200905 | 15 | 275 | 4.8 | 17.7 | 0.00 | 0.00 | 0.00 | 88 | 1011.1 |
| 20260831200352 | 15 | 287 | 9.7 | 16.1 | 0.00 | 0.00 | 0.00 | 89 | 1011.1 |
| 20260831195839 | 14 | 236 | 9.7 | 14.5 | 0.00 | 0.00 | 0.00 | 88 | 1011.1 |
| 20260831194352 | 14 | 288 | 9.7 | 14.5 | 0.00 | 0.00 | 0.00 | 88 | 1011.0 |
| 20260831194300 | 14 | 288 | 9.7 | 14.5 | 0.00 | 0.00 | 0.00 | 88 | 1011.0 |
| 20260831193748 | 14 | 305 | 9.7 | 14.5 | 0.00 | 0.00 | 0.00 | 89 | 1011.0 |
| 20260831193234 | 14 | 310 | 6.4 | 14.5 | 0.00 | 0.00 | 0.00 | 89 | 1011.0 |
| 20260831192721 | 14 | 288 | 11.3 | 14.5 | 0.00 | 0.00 | 0.00 | 88 | 1010.9 |
| 20260831192208 | 15 | 284 | 11.3 | 12.9 | 0.00 | 0.00 | 0.00 | 88 | 1010.9 |
| 20260831191655 | 15 | 291 | 8.0 | 12.9 | 0.00 | 0.00 | 0.00 | 88 | 1010.8 |
| 20260831191142 | 16 | 305 | 9.7 | 12.9 | 0.00 | 0.00 | 0.00 | 88 | 1010.8 |
| 20260831190629 | 15 | 292 | 8.0 | 11.3 | 0.00 | 0.00 | 0.00 | 89 | 1010.8 |
| 20260831190116 | 15 | 295 | 9.7 | 11.3 | 0.00 | 0.00 | 0.00 | 89 | 1010.8 |
| 20260831185603 | 15 | 308 | 3.2 | 11.3 | 0.00 | 0.00 | 0.00 | 89 | 1010.9 |
| 20260831185050 | 15 | 287 | 8.0 | 9.7 | 0.00 | 0.00 | 0.00 | 89 | 1011.0 |
| 20260831184537 | 16 | 292 | 8.0 | 12.9 | 0.00 | 0.00 | 0.00 | 89 | 1011.0 |
| 20260831184024 | 16 | 298 | 8.0 | 12.9 | 0.00 | 0.00 | 0.00 | 89 | 1011.1 |
| 20260831183511 | 16 | 305 | 8.0 | 12.9 | 0.00 | 0.00 | 0.00 | 89 | 1011.1 |
| 20260831183000 | 16 | 285 | 0.0 | 11.3 | 0.00 | 0.00 | 0.00 | 91 | 1011.2 |
| 20260831182445 | 16 | 268 | 0.0 | 11.3 | 0.00 | 0.00 | 0.00 | 91 | 1011.2 |
| 20260831180353 | 15 | 303 | 6.4 | 9.7 | 0.00 | 0.00 | 0.00 | 92 | 1011.3 |
| 20260831175840 | 15 | 250 | 3.2 | 9.7 | 0.00 | 0.00 | 0.00 | 92 | 1011.3 |
| 20260831174814 | 15 | 280 | 0.0 | 8.0 | 0.00 | 0.00 | 0.00 | 92 | 1011.3 |
| 20260831174301 | 15 | 298 | 0.0 | 8.0 | 0.00 | 0.00 | 0.00 | 93 | 1011.3 |
| 20260831173748 | 14 | 0 | 0.0 | 8.0 | 0.00 | 0.00 | 0.00 | 93 | 1011.3 |
| 20260831173235 | 13 | 298 | 0.0 | 8.0 | 0.00 | 0.00 | 0.00 | 93 | 1011.3 |
| 20260831172722 | 13 | 294 | 4.8 | 8.0 | 0.00 | 0.00 | 0.00 | 93 | 1011.3 |
| 20260831172210 | 13 | 308 | 3.2 | 8.0 | 0.00 | 0.00 | 0.00 | 93 | 1011.2 |
| 20260831171656 | 13 | 0 | 0.0 | 0.0 | 0.00 | 0.00 | 0.00 | 94 | 1011.2 |
| 20260831171143 | 13 | 0 | 0.0 | 0.0 | 0.00 | 0.00 | 0.00 | 94 | 1011.2 |
| 20260831170630 | 13 | 0 | 0.0 | 0.0 | 0.00 | 0.00 | 0.00 | 94 | 1011.3 |
| 20260831170117 | 13 | 0 | 0.0 | 0.0 | 0.00 | 0.00 | 0.00 | 94 | 1011.2 |
| 20260831165604 | 13 | 0 | 0.0 | 0.0 | 0.00 | 0.00 | 0.00 | 94 | 1011.1 |
| 20260831165051 | 13 | 0 | 0.0 | 0.0 | 0.00 | 0.00 | 0.00 | 94 | 1011.2 |
| 20260831164538 | 12 | 0 | 0.0 | 0.0 | 0.00 | 0.00 | 0.00 | 94 | 1011.1 |
| 20260831164025 | 12 | 0 | 0.0 | 0.0 | 0.00 | 0.00 | 0.00 | 94 | 1011.1 |
| 20260831163512 | 12 | 0 | 0.0 | 0.0 | 0.00 | 0.00 | 0.00 | 94 | 1011.2 |
| 20260831162446 | 12 | 0 | 0.0 | 0.0 | 0.00 | 0.00 | 0.00 | 94 | 1011.3 |
| 20260831161933 | 12 | 0 | 0.0 | 0.0 | 0.00 | 0.00 | 0.00 | 94 | 1011.3 |
| 20260831161420 | 12 | 0 | 0.0 | 0.0 | 0.00 | 0.00 | 0.00 | 95 | 1011.2 |
| 20260831160907 | 12 | 0 | 0.0 | 0.0 | 0.00 | 0.00 | 0.00 | 95 | 1011.3 |
| 20260831160354 | 12 | 0 | 0.0 | 0.0 | 0.00 | 0.00 | 0.00 | 95 | 1011.3 |
| 20260831155841 | 12 | 0 | 0.0 | 0.0 | 0.00 | 0.03 | 0.00 | 95 | 1011.3 |
| 20260831154815 | 11 | 0 | 0.0 | 0.0 | 0.00 | 0.03 | 0.00 | 95 | 1011.4 |
| 20260831154302 | 11 | 0 | 0.0 | 0.0 | 0.00 | 0.03 | 0.00 | 95 | 1011.4 |
| 20260831153749 | 11 | 0 | 0.0 | 0.0 | 0.00 | 0.03 | 0.00 | 95 | 1011.4 |
| 20260831153236 | 11 | 0 | 0.0 | 0.0 | 0.00 | 0.03 | 0.00 | 95 | 1011.4 |
| 20260831152723 | 11 | 0 | 0.0 | 0.0 | 0.00 | 0.03 | 0.00 | 95 | 1011.3 |
| 20260831152210 | 11 | 0 | 0.0 | 0.0 | 0.00 | 0.03 | 0.00 | 95 | 1011.4 |
| 20260831151657 | 11 | 0 | 0.0 | 0.0 | 0.00 | 0.03 | 0.00 | 95 | 1011.4 |
| 20260831151144 | 11 | 0 | 0.0 | 0.0 | 0.00 | 0.03 | 0.00 | 95 | 1011.4 |
| 20260831150631 | 11 | 0 | 0.0 | 0.0 | 0.00 | 0.03 | 0.00 | 95 | 1011.5 |
| 20260831150117 | 11 | 0 | 0.0 | 0.0 | 0.00 | 0.03 | 0.00 | 95 | 1011.5 |
| 20260831145606 | 11 | 0 | 0.0 | 0.0 | 0.00 | 0.03 | 0.00 | 95 | 1011.5 |
| 20260831145052 | 11 | 0 | 0.0 | 0.0 | 0.00 | 0.03 | 0.00 | 95 | 1011.5 |
| 20260831144539 | 11 | 0 | 0.0 | 0.0 | 0.00 | 0.03 | 0.00 | 95 | 1011.5 |
| 20260831144025 | 11 | 0 | 0.0 | 0.0 | 0.00 | 0.03 | 0.00 | 95 | 1011.4 |
| 20260831143513 | 11 | 0 | 0.0 | 0.0 | 0.00 | 0.03 | 0.00 | 95 | 1011.3 |
| 20260831143000 | 10 | 0 | 0.0 | 0.0 | 0.00 | 0.03 | 0.00 | 96 | 1011.2 |
| 20260831141933 | 10 | 0 | 0.0 | 0.0 | 0.00 | 0.03 | 0.00 | 95 | 1011.1 |
| 20260831141420 | 10 | 0 | 0.0 | 0.0 | 0.00 | 0.03 | 0.00 | 95 | 1011.1 |
| 20260831140907 | 10 | 0 | 0.0 | 0.0 | 0.00 | 0.03 | 0.00 | 96 | 1011.0 |
| 20260831140354 | 10 | 0 | 0.0 | 0.0 | 0.00 | 0.03 | 0.00 | 96 | 1011.0 |
| 20260831135841 | 10 | 0 | 0.0 | 0.0 | 0.00 | 0.03 | 0.00 | 95 | 1010.9 |
| 20260831135329 | 10 | 0 | 0.0 | 0.0 | 0.00 | 0.03 | 0.00 | 96 | 1010.9 |
| 20260831134815 | 10 | 0 | 0.0 | 0.0 | 0.00 | 0.03 | 0.00 | 96 | 1010.8 |
| 20260831134302 | 10 | 0 | 0.0 | 0.0 | 0.00 | 0.03 | 0.00 | 95 | 1010.9 |
| 20260831133749 | 10 | 0 | 0.0 | 0.0 | 0.00 | 0.03 | 0.00 | 95 | 1010.9 |
| 20260831133236 | 10 | 0 | 0.0 | 0.0 | 0.00 | 0.03 | 0.00 | 95 | 1010.9 |
| 20260831132723 | 10 | 0 | 0.0 | 0.0 | 0.00 | 0.03 | 0.00 | 95 | 1011.0 |
| 20260831132210 | 10 | 0 | 0.0 | 0.0 | 0.00 | 0.03 | 0.00 | 95 | 1011.0 |
| 20260831131657 | 10 | 0 | 0.0 | 0.0 | 0.00 | 0.03 | 0.00 | 95 | 1011.0 |
| 20260831131144 | 10 | 0 | 0.0 | 0.0 | 0.00 | 0.03 | 0.00 | 96 | 1011.1 |
| 20260831130631 | 10 | 0 | 0.0 | 0.0 | 0.00 | 0.03 | 0.00 | 95 | 1011.1 |
| 20260831130118 | 11 | 0 | 0.0 | 0.0 | 0.00 | 0.03 | 0.00 | 95 | 1011.1 |
| 20260831125605 | 10 | 0 | 0.0 | 0.0 | 0.00 | 0.03 | 0.00 | 95 | 1011.1 |
| 20260831125052 | 11 | 0 | 0.0 | 0.0 | 0.00 | 0.03 | 0.00 | 95 | 1011.1 |
| 20260831124539 | 11 | 0 | 0.0 | 0.0 | 0.00 | 0.03 | 0.00 | 95 | 1011.2 |
| 20260831124026 | 10 | 0 | 0.0 | 0.0 | 0.00 | 0.03 | 0.00 | 95 | 1011.2 |
| 20260831123513 | 10 | 0 | 0.0 | 0.0 | 0.00 | 0.03 | 0.00 | 95 | 1011.2 |
| 20260831123000 | 10 | 0 | 0.0 | 0.0 | 0.00 | 0.03 | 0.00 | 95 | 1011.2 |
| 20260831122448 | 10 | 0 | 0.0 | 0.0 | 0.00 | 0.03 | 0.00 | 95 | 1011.2 |
| 20260831121934 | 10 | 0 | 0.0 | 0.0 | 0.00 | 0.03 | 0.00 | 95 | 1011.3 |
| 20260831121421 | 10 | 0 | 0.0 | 0.0 | 0.00 | 0.03 | 0.00 | 95 | 1011.4 |
| 20260831120908 | 10 | 0 | 0.0 | 0.0 | 0.00 | 0.03 | 0.00 | 95 | 1011.4 |
| 20260831120356 | 10 | 0 | 0.0 | 0.0 | 0.00 | 0.03 | 0.00 | 95 | 1011.4 |
| 20260831114817 | 11 | 0 | 0.0 | 0.0 | 0.00 | 0.03 | 0.00 | 94 | 1011.5 |
| 20260831114304 | 11 | 0 | 0.0 | 0.0 | 0.00 | 0.03 | 0.00 | 95 | 1011.5 |
| 20260831113750 | 11 | 0 | 0.0 | 0.0 | 0.00 | 0.03 | 0.00 | 94 | 1011.5 |
| 20260831113237 | 11 | 0 | 0.0 | 0.0 | 0.00 | 0.03 | 0.00 | 95 | 1011.5 |